Find Starlink 32541

NORAD ID: 61916 Int'l Des: 2024-207 Owner: SPXS Country: US Constellation: starlink operational
LEOCIRCULAR

Live Position

Loading 3D Globe...

About Starlink 32541

Description loading...

Upcoming Passes

Passes for default location (London). Set your location on the main map for personalized predictions.

Altitude History

Loading altitude history...

Two-Line Element Set

1 61916U 24207E 26106.18665880 .00015232 00000-0 56162-3 0 9991
2 61916 42.9995 73.7062 0000807 261.4556 98.6204 15.27595732 80410
Epoch: Apr 16, 2026 • Age: 27 hours

Current Status

Altitude 482.9 km
Velocity 7.63 km/s
Sub-Earth Point 23.42°N, 139.8°E
Launch Date Nov 11, 2024
Age 1.4 years
Type internet

Technical Details

Classification Payload
Mass 730.00 kg
Dry Mass 700.00 kg
Total Mass 730.00 kg
Length 0.30 m
Diameter 4.10 m
Span 29.00 m
Shape Box + pan
Manufacturer SPXS
Bus Type Starlink V2M
Phase Status In Orbit
Owner/State SPXS/US

Most Searched